Location: W�rzburg
(49.7529°N, 9.8822°E)
Time: 02:43:43
(UTC+01:00)

ISS - Pass Details

Date: 11 January 2018
Orbit: 402 x 407 km, 51.6° (Epoch: 23 January)

Event Time Altitude Azimuth Distance (km) Brightness Sun altitude
Exits shadow 05:40:47 38° 100° (E) 637 -2.4 -24.0°
Drops below altitude 10° 05:42:57 10° 104° (ESE) 1,467 0.1 -23.7°
Sets 05:45:02 0° 105° (ESE) 2,327 1.4 -23.3°
